Starlink 32426

operational
NORAD ID: 61681 Int'l Des: 2024-193 Owner: SPXS Country: US Constellation: starlink
LEOCIRCULAR

Über Starlink 32426

Beschreibung wird geladen...

Live-Position

3D-Globus wird geladen...

Nächste Überflüge

Höhenverlauf

Altitude vs Time

uPlot chart will show altitude changes over time

Zweizeiliger Elementsatz

1 61681U 24193W 25259.17717734 -.00003466 00000-0 -10508-3 0 9999
2 61681 53.1591 181.9053 0001399 96.4614 263.6546 15.30163579 49800
Epoch: 16. Sept. 2025 • Age: 9 hours

Aktueller Status

Höhe 482.1 km
Geschwindigkeit 7.62 km/s
Subsatellitenpunkt -21.96°S, 36.18°W
Startdatum 26. Okt. 2024
Alter 0.8 years
Typ internet

Technische Details

Klassifizierung Payload
Masse 730.00 kg
Trockenmasse 700.00 kg
Gesamtmasse 730.00 kg
Länge 0.30 m
Durchmesser 4.10 m
Spannweite 29.00 m
Form Box + pan
Hersteller SPXS
Bus-Typ Starlink V2M
Phasenstatus In Orbit
Besitzer/Staat SPXS/US

Große Konstellationen

Loading constellations...